Temperature
13 12 12 11 11 10 10 10 10 10 9 9 9 9 9 9 9 9 9 10 10 10 10 10 11 11 11 11 11 11 11 11 12 12 13 14 14 15 15 15 16 16 16
12 11 11 11 10 10 10 10 9 9 9 9 9 9 9 9 9 9 9 9 9 9 10 10 10 10 10 11 11 11 11 11 11 12 12 13 13 14 14 15 15 15 15
11 11 10 10 10 10 9 9 9 9 9 9 8 8 8 8 8 8 8 8 9 9 9 9 10 10 10 10 10 10 11 11 11 11 12 12 12 13 13 14 14 14 15
11 10 10 10 9 9 9 9 9 8 8 8 8 8 8 8 8 8 8 8 8 8 8 9 9 9 9 10 10 10 10 10 10 11 11 11 12 12 12 13 13 13 14
11 10 10 9 9 9 9 9 8 8 8 8 8 8 8 8 8 8 8 8 8 8 8 8 8 9 9 9 9 10 10 10 10 10 10 11 11 11 12 12 12 12 13
10 10 10 9 9 9 9 8 8 8 8 8 8 8 8 8 8 8 7 7 8 8 8 8 8 8 8 9 9 9 9 10 10 10 10 10 11 11 11 11 12 12 11
10 10 9 9 9 9 8 8 8 8 8 8 8 8 8 8 8 7 7 7 7 7 7 8 8 8 8 8 8 9 9 9 9 10 10 10 11 11 11 11 11 11 12
10 10 9 9 9 9 8 8 8 8 8 8 8 8 8 8 8 7 7 7 7 7 7 7 7 7 7 8 8 8 9 9 9 9 9 10 10 10 11 11 11 11 11
10 10 9 9 9 9 9 8 8 8 8 8 8 8 8 8 7 7 7 7 7 7 7 7 7 7 7 7 7 7 8 8 9 9 9 9 10 10 10 10 10 11 11
10 9 9 9 9 9 8 8 8 8 8 8 8 8 7 7 7 7 7 7 7 7 7 7 7 7 7 7 7 7 8 8 8 9 9 9 9 9 10 10 10 10 10
10 10 9 9 9 8 8 8 8 8 8 8 8 8 7 7 7 7 7 6 6 6 7 7 7 7 7 7 7 7 7 8 8 8 9 9 9 9 9 10 10 10 10
10 10 9 9 9 8 8 8 8 8 8 8 8 8 8 7 7 7 7 6 6 6 6 7 6 6 6 6 6 7 7 7 8 8 8 9 9 9 9 10 10 10 10
10 10 9 9 9 8 8 8 8 8 8 8 8 8 8 7 7 7 7 6 6 6 6 6 6 6 6 6 6 7 7 7 7 8 8 9 9 9 9 9 9 10 10
10 10 9 9 9 9 9 8 8 8 8 8 8 8 7 7 7 7 7 6 6 6 6 6 6 6 6 6 6 6 7 7 7 8 8 8 8 9 9 9 9 9 9
10 10 9 9 9 9 9 9 9 8 8 8 8 8 7 7 7 7 6 6 6 6 6 6 6 6 6 6 6 6 7 7 7 7 8 8 8 8 9 9 9 9 9
10 10 10 9 9 9 9 9 9 9 8 8 8 8 8 7 7 7 7 6 6 6 6 6 6 6 6 6 6 6 7 7 7 7 8 8 8 8 8 9 9 9 9
10 10 9 9 9 9 9 9 9 9 9 9 8 8 8 7 7 7 7 6 6 6 6 6 6 6 6 6 6 6 7 7 7 7 7 8 8 8 8 8 9 9 9
10 10 9 9 9 9 9 9 9 9 9 9 9 8 8 8 7 7 7 6 6 6 6 6 6 6 6 6 6 7 7 7 7 7 7 8 8 8 8 8 8 9 9
10 10 10 9 9 9 9 9 9 9 9 9 9 9 8 8 7 7 7 7 6 6 6 6 6 6 6 6 6 7 7 7 7 8 8 8 8 8 8 8 8 8 9
10 10 10 9 9 9 9 9 9 9 9 9 9 8 8 8 8 7 7 7 7 7 6 6 6 6 6 6 7 7 7 7 7 8 8 8 8 8 8 8 8 8 8
10 10 10 9 9 9 10 10 9 9 9 9 9 9 8 8 7 7 7 7 7 7 7 7 6 6 6 7 7 7 7 7 8 8 8 8 8 8 8 8 8 8 8
10 10 10 9 9 9 9 10 10 9 9 9 9 9 8 8 8 7 7 7 7 7 7 7 7 7 7 7 7 7 7 7 8 8 8 8 8 8 8 8 8 8 8
10 9 9 9 9 9 9 10 10 9 9 9 9 8 8 8 7 7 7 7 7 7 7 7 7 7 7 7 7 7 7 7 8 8 8 8 8 8 8 8 8 8 8
9 9 9 9 9 9 9 9 10 9 9 9 9 8 8 8 7 7 7 7 7 7 7 7 7 7 7 7 7 7 7 8 8 8 8 8 8 8 8 8 8 8 8
9 9 9 9 9 9 9 9 9 9 9 9 9 9 8 8 8 8 7 7 7 7 7 7 7 7 7 7 7 7 7 8 8 8 8 8 8 8 8 8 8 8 8
9 9 9 9 9 9 9 9 9 9 9 9 9 9 8 8 8 8 7 7 7 7 7 7 7 7 7 7 7 7 7 8 8 8 8 8 8 8 8 8 8 8 8
Wind_Speed
4 4 5 5 5 5 5 6 6 6 6 7 7 7 7 8 7 6 7 8 8 8 7 7 8 7 6 5 5 4 5 4 5 3 2 1 1 2 3 5 6 7 8
4 4 5 6 5 6 7 7 7 7 7 7 7 8 9 9 8 8 9 9 9 9 9 9 9 7 8 6 6 6 5 5 4 4 2 1 1 3 4 5 5 6 7
4 5 6 6 6 7 8 8 7 7 8 8 8 9 9 9 9 9 9 10 10 10 10 10 10 9 9 8 8 7 6 5 4 4 3 1 1 3 4 4 6 5 6
5 5 6 7 7 7 8 8 8 8 8 9 9 9 10 10 10 10 10 10 10 10 10 10 11 10 11 10 9 9 8 6 5 5 4 3 2 3 4 5 5 4 5
5 6 7 8 7 7 8 8 8 8 9 9 9 10 10 9 10 10 10 11 10 11 10 10 11 13 14 12 9 9 9 7 6 6 5 4 3 4 5 4 6 6 4
6 8 8 8 8 8 8 8 8 9 9 9 10 11 11 10 12 14 12 10 10 11 11 10 11 13 14 15 17 15 13 11 9 7 6 6 6 5 5 6 6 6 5
7 8 8 8 8 9 9 9 9 9 9 10 10 11 12 13 15 16 17 12 11 11 11 10 10 11 11 10 13 16 16 16 14 10 9 8 7 7 7 8 8 8 5
7 8 8 8 9 9 9 10 10 9 9 10 11 11 11 13 15 15 16 12 11 12 12 12 12 12 11 10 10 11 12 13 14 11 9 9 8 7 8 8 8 6 5
8 9 9 8 9 9 10 10 10 9 10 10 10 11 12 13 14 14 13 9 9 12 11 12 12 13 13 13 11 11 11 10 11 13 11 10 10 10 8 7 8 8 6
9 9 9 8 9 10 10 10 9 9 10 10 11 11 11 12 13 14 12 7 9 9 9 10 13 14 14 14 12 11 12 10 9 10 9 9 9 9 10 9 9 9 6
8 8 9 9 9 10 10 9 9 9 10 10 11 11 10 11 12 13 11 7 8 9 8 8 9 13 15 15 13 11 12 10 9 9 8 7 6 6 8 8 8 8 8
7 8 9 9 9 8 8 9 9 9 9 10 9 10 8 8 9 10 11 10 10 9 9 8 8 11 14 14 12 11 12 10 7 7 7 7 7 7 7 7 7 7 5
7 8 9 9 9 8 8 9 9 8 7 8 8 8 9 7 7 10 11 10 10 9 8 10 10 11 10 9 11 11 10 8 8 8 8 8 7 7 6 5 5 5 5
7 9 8 9 9 9 7 7 7 8 8 8 8 8 8 8 7 5 5 5 6 7 7 7 9 8 7 6 6 8 8 8 8 8 8 6 5 5 6 6 6 6 5
7 8 8 8 8 9 9 7 8 9 9 9 8 8 8 9 8 7 6 5 4 4 4 3 3 4 5 5 5 6 7 7 8 7 6 6 6 6 5 6 6 6 6
7 8 7 7 7 8 9 10 10 11 13 14 14 12 9 12 13 12 10 10 9 7 4 4 4 5 6 7 7 6 6 7 7 7 7 7 7 7 6 6 6 7 7
7 8 7 7 8 8 8 8 10 10 10 11 11 12 12 12 12 11 9 8 6 6 4 5 5 6 6 6 7 7 7 7 7 7 7 7 7 7 7 7 7 7 7
7 8 8 7 8 8 8 8 8 9 10 8 7 9 10 10 10 9 7 3 3 4 5 5 5 5 6 6 7 7 6 7 7 7 7 7 7 7 7 7 8 8 8
6 6 7 7 7 8 8 8 8 8 8 8 8 7 7 7 7 7 4 4 5 5 6 5 5 5 5 6 6 6 7 7 8 7 7 8 7 7 7 8 7 9 9
6 9 8 7 7 7 7 7 7 7 7 7 7 7 5 3 4 4 3 4 5 5 5 5 5 5 5 5 5 6 6 6 8 7 7 8 8 8 9 9 8 8 8
6 7 9 7 6 7 7 7 7 7 7 7 7 7 6 4 5 5 4 4 5 5 6 5 5 5 5 6 6 7 7 7 7 7 7 8 8 8 8 8 8 8 7
5 5 5 6 6 7 7 6 6 6 7 7 7 6 7 4 4 4 4 4 4 5 5 5 5 5 6 6 7 7 7 7 7 8 8 8 8 8 8 8 8 8 8
4 5 6 6 6 8 7 6 6 6 6 6 6 6 5 4 4 4 4 4 3 3 3 4 5 5 5 6 6 7 8 8 8 8 8 8 8 9 9 9 11 10 10
4 5 5 6 6 6 6 6 6 6 5 6 5 5 5 4 4 4 4 3 3 2 2 3 4 6 7 6 6 6 7 7 8 8 10 9 9 9 9 10 10 12 11
4 4 4 5 5 5 6 6 6 5 5 5 5 5 5 4 4 4 4 3 3 2 1 1 2 4 6 7 7 6 7 8 8 7 8 9 10 11 11 11 11 11 11
3 3 4 4 4 5 5 5 5 5 5 5 5 5 5 5 4 4 4 3 2 2 1 0 1 2 4 4 5 6 7 8 8 8 8 8 10 10 11 10 13 12 12
Wind_Direction
284 285 288 287 289 288 280 276 275 275 275 273 274 276 276 274 272 266 263 263 258 259 255 246 247 244 240 237 234 233 228 223 243 262 260 298 239 148 125 127 131 137 143
280 285 285 287 290 287 281 279 277 276 275 272 274 275 274 273 266 261 264 265 258 258 257 250 250 246 238 236 230 230 229 222 226 251 256 248 223 171 151 134 127 126 125
284 286 288 287 283 280 280 281 280 277 279 279 274 272 272 272 270 265 260 261 258 256 254 250 250 243 240 234 228 228 228 226 219 233 246 225 214 166 153 133 127 120 119
285 284 281 278 276 277 279 281 280 277 277 277 276 273 272 272 271 268 263 260 259 257 254 251 249 242 239 234 229 227 223 221 217 221 228 224 209 178 166 158 150 138 130
282 280 276 278 280 282 282 282 281 278 278 275 277 277 273 270 266 261 258 259 256 257 255 253 252 248 242 235 229 221 215 215 213 215 217 216 209 190 185 172 163 146 131
276 277 280 283 285 285 284 284 283 282 281 279 276 276 275 271 266 263 262 261 257 255 256 254 254 257 254 244 235 222 209 207 207 208 211 215 215 207 194 179 166 163 166
277 281 284 285 286 286 288 289 286 284 282 282 279 276 274 271 268 268 268 264 257 253 251 250 254 252 244 243 239 230 219 213 203 200 209 213 210 206 195 191 183 178 167
282 285 286 286 286 288 289 287 285 283 282 282 282 279 276 275 270 266 268 266 259 253 247 244 246 251 246 238 238 233 225 220 214 210 213 213 211 205 203 198 182 156 129
281 283 284 285 287 289 289 288 286 285 286 283 281 280 278 277 272 267 265 265 258 255 249 244 241 244 240 230 231 230 227 225 220 212 208 209 206 201 195 187 176 168 165
275 279 283 284 283 285 285 286 286 284 284 286 284 281 276 276 274 270 266 258 257 256 253 247 239 237 234 225 224 222 223 220 210 205 207 209 210 207 197 199 189 182 168
273 281 286 285 283 281 282 283 287 289 289 287 286 285 279 274 275 273 265 247 248 252 251 248 241 232 230 224 218 220 219 209 204 199 198 199 200 202 201 202 196 189 180
277 283 287 289 288 289 286 291 291 288 291 291 290 292 286 277 270 274 270 253 240 243 248 248 243 231 227 222 218 219 212 200 199 196 195 197 199 202 201 195 195 193 185
284 288 292 295 293 289 287 291 296 291 288 289 288 290 293 289 278 272 275 268 253 241 246 245 240 231 223 221 220 210 198 198 193 194 198 200 201 198 186 178 176 173 160
281 290 295 299 300 300 292 285 286 287 287 287 287 287 290 291 287 286 281 277 267 251 250 249 240 229 216 211 204 201 198 197 194 195 196 193 181 177 179 172 169 169 164
280 288 295 294 295 300 298 288 280 273 265 270 279 276 281 288 283 275 275 272 262 254 248 236 220 208 204 202 198 193 191 191 196 193 184 179 176 175 177 172 167 168 175
281 290 293 297 299 299 302 306 284 267 272 262 255 257 264 260 274 283 278 268 257 242 225 224 219 212 206 201 197 192 190 191 192 185 179 178 176 176 174 172 173 176 179
267 282 291 293 296 298 301 304 309 309 292 279 270 265 258 268 274 276 277 273 252 214 219 231 222 213 206 201 197 192 194 193 186 183 182 181 176 174 173 175 180 182 184
268 279 283 286 290 293 296 297 295 299 307 309 296 280 275 274 276 277 272 253 233 212 226 231 226 215 205 201 198 195 191 185 183 184 185 183 179 177 179 179 183 187 184
272 281 285 287 288 289 292 294 294 294 293 297 303 303 292 283 277 269 242 228 237 234 230 229 226 219 208 201 196 192 189 187 185 183 183 182 182 183 186 184 183 187 187
271 282 290 291 294 297 298 298 299 299 299 300 301 301 307 303 299 284 242 236 240 240 234 230 224 218 209 202 196 192 188 186 184 186 185 184 186 189 191 187 181 183 191
275 288 297 298 294 295 297 299 299 299 300 302 299 293 288 283 286 288 280 255 243 241 235 227 219 214 210 201 197 195 194 192 188 186 185 185 186 189 190 187 183 185 187
269 282 291 293 297 299 299 297 297 300 305 307 307 308 301 286 284 289 286 275 262 245 234 225 220 215 208 203 199 195 197 194 190 188 186 184 186 188 186 185 184 184 187
265 281 290 294 298 300 302 303 303 306 311 314 313 315 317 308 300 296 296 291 279 264 239 222 221 217 209 206 202 198 197 197 193 188 184 183 185 186 185 186 186 183 187
263 275 287 297 304 306 306 309 311 314 319 318 320 322 322 316 312 311 311 307 300 289 251 218 214 215 211 208 204 204 204 198 189 191 189 185 185 186 186 186 186 186 187
265 276 287 296 303 305 310 312 316 321 324 323 326 330 332 328 324 323 325 328 326 320 299 241 215 210 210 209 204 204 198 193 190 188 188 187 187 185 184 185 183 182 182
267 279 290 299 305 308 312 315 317 322 326 328 330 334 337 337 335 336 339 345 348 351 356 359 214 212 210 211 205 194 186 188 188 187 186 184 185 185 184 185 183 183 183
Height
1501 1499 1497 1495 1493 1491 1489 1487 1485 1483 1481 1479 1478 1476 1475 1474 1473 1472 1471 1471 1470 1470 1471 1471 1472 1473 1473 1474 1474 1475 1475 1475 1475 1475 1477 1478 1480 1483 1486 1489 1493 1497 1501
1497 1495 1493 1491 1488 1486 1484 1482 1480 1478 1476 1474 1472 1471 1469 1468 1466 1465 1464 1464 1463 1463 1464 1464 1465 1466 1467 1468 1469 1470 1470 1470 1471 1471 1473 1474 1476 1479 1482 1485 1489 1493 1497
1494 1491 1489 1487 1484 1482 1480 1477 1475 1473 1471 1469 1466 1465 1463 1461 1460 1459 1458 1457 1457 1457 1457 1457 1458 1459 1460 1462 1463 1464 1465 1466 1466 1467 1469 1471 1473 1476 1478 1481 1485 1489 1493
1490 1487 1485 1482 1480 1477 1475 1472 1470 1467 1465 1463 1460 1458 1456 1455 1453 1452 1451 1450 1450 1449 1450 1450 1451 1452 1453 1455 1456 1458 1460 1461 1462 1463 1465 1467 1469 1472 1474 1477 1481 1485 1489
1486 1483 1481 1478 1475 1473 1470 1467 1464 1462 1459 1457 1454 1452 1450 1448 1446 1445 1444 1443 1442 1442 1442 1443 1443 1444 1445 1447 1449 1451 1454 1455 1457 1458 1460 1462 1465 1467 1470 1473 1477 1481 1485
1482 1479 1477 1474 1471 1468 1465 1461 1458 1456 1453 1451 1448 1446 1443 1441 1440 1438 1437 1436 1435 1434 1434 1435 1436 1437 1438 1440 1442 1444 1447 1449 1451 1453 1455 1457 1459 1463 1466 1469 1472 1476 1480
1478 1475 1472 1469 1466 1463 1459 1456 1453 1451 1448 1445 1442 1440 1437 1435 1433 1431 1430 1428 1427 1426 1426 1427 1428 1429 1430 1432 1434 1437 1440 1442 1446 1448 1450 1452 1455 1458 1461 1465 1468 1471 1475
1474 1471 1468 1465 1461 1458 1455 1452 1449 1446 1442 1439 1436 1433 1430 1428 1426 1424 1423 1421 1419 1419 1419 1419 1420 1421 1423 1425 1427 1429 1432 1435 1439 1442 1445 1447 1451 1453 1456 1460 1463 1467 1472
1470 1467 1464 1460 1456 1453 1450 1447 1444 1440 1437 1434 1430 1427 1424 1421 1419 1417 1416 1413 1412 1411 1411 1412 1412 1413 1415 1417 1420 1422 1425 1428 1433 1436 1440 1443 1446 1448 1451 1455 1458 1462 1466
1466 1463 1459 1456 1452 1448 1445 1442 1439 1435 1431 1428 1425 1421 1418 1415 1413 1411 1409 1406 1405 1404 1404 1404 1405 1405 1407 1410 1412 1415 1418 1422 1426 1430 1434 1437 1441 1443 1446 1449 1453 1457 1461
1462 1458 1455 1451 1448 1444 1441 1437 1434 1430 1427 1423 1419 1416 1413 1409 1406 1404 1402 1400 1399 1398 1397 1397 1398 1399 1400 1402 1405 1408 1411 1416 1420 1424 1428 1432 1435 1438 1442 1445 1448 1452 1456
1457 1454 1451 1447 1444 1440 1436 1433 1429 1426 1422 1418 1414 1410 1407 1404 1401 1399 1397 1395 1393 1392 1391 1391 1392 1393 1394 1396 1398 1401 1406 1410 1414 1418 1422 1425 1429 1433 1436 1440 1444 1447 1451
1453 1450 1447 1443 1440 1436 1432 1428 1425 1421 1417 1413 1409 1405 1401 1399 1396 1394 1392 1390 1388 1387 1386 1386 1387 1387 1389 1390 1393 1396 1400 1403 1407 1412 1416 1420 1424 1429 1432 1436 1440 1443 1447
1449 1446 1442 1439 1435 1432 1428 1424 1420 1416 1413 1409 1405 1401 1397 1394 1391 1389 1386 1385 1383 1382 1381 1381 1382 1383 1384 1386 1389 1391 1395 1398 1403 1407 1412 1416 1420 1424 1427 1431 1435 1439 1443
1445 1442 1438 1435 1431 1427 1424 1420 1416 1412 1409 1405 1401 1397 1393 1389 1387 1384 1382 1380 1379 1378 1377 1377 1377 1379 1380 1382 1385 1387 1390 1394 1399 1403 1407 1411 1415 1419 1423 1427 1431 1435 1439
1441 1437 1434 1431 1427 1424 1420 1416 1412 1409 1405 1401 1397 1393 1389 1386 1383 1380 1378 1376 1374 1374 1373 1373 1373 1375 1376 1379 1381 1384 1387 1391 1395 1399 1403 1407 1411 1415 1419 1423 1427 1431 1435
1437 1434 1430 1427 1424 1420 1416 1412 1408 1404 1401 1398 1394 1390 1386 1382 1379 1377 1374 1372 1371 1370 1370 1369 1370 1371 1373 1376 1378 1381 1385 1388 1392 1396 1400 1404 1408 1412 1416 1420 1424 1427 1431
1433 1430 1427 1423 1420 1417 1413 1409 1405 1400 1396 1393 1390 1386 1383 1379 1376 1373 1371 1369 1367 1366 1366 1367 1367 1368 1370 1373 1375 1378 1382 1386 1390 1393 1397 1401 1405 1409 1413 1416 1420 1424 1427
1429 1426 1423 1420 1417 1414 1410 1407 1403 1398 1394 1390 1386 1382 1379 1376 1373 1370 1368 1366 1364 1363 1363 1364 1365 1366 1368 1370 1373 1376 1379 1383 1387 1390 1394 1398 1402 1405 1409 1413 1417 1421 1424
1425 1422 1419 1416 1413 1411 1407 1404 1400 1395 1391 1387 1383 1379 1376 1373 1370 1367 1365 1362 1361 1360 1361 1361 1362 1363 1365 1367 1370 1373 1377 1380 1383 1387 1391 1395 1398 1402 1406 1410 1413 1417 1420
1421 1418 1416 1413 1410 1407 1404 1401 1397 1393 1388 1384 1381 1377 1374 1370 1367 1365 1362 1360 1359 1358 1358 1358 1359 1361 1363 1365 1368 1371 1374 1377 1380 1384 1388 1391 1395 1399 1403 1406 1410 1414 1417
1417 1415 1412 1410 1407 1404 1401 1398 1394 1390 1386 1382 1379 1375 1372 1368 1365 1362 1360 1358 1357 1356 1355 1356 1357 1358 1360 1363 1365 1368 1371 1374 1377 1380 1384 1388 1391 1395 1399 1402 1406 1410 1414
1413 1411 1409 1406 1404 1401 1398 1395 1392 1389 1385 1381 1377 1373 1369 1366 1363 1360 1358 1356 1354 1353 1353 1353 1354 1355 1357 1360 1362 1365 1367 1371 1374 1377 1381 1384 1388 1391 1395 1398 1402 1406 1410
1409 1407 1405 1403 1401 1398 1396 1393 1390 1387 1383 1379 1376 1372 1368 1365 1362 1359 1357 1355 1353 1352 1351 1351 1351 1353 1354 1357 1359 1361 1364 1368 1371 1374 1377 1381 1384 1387 1391 1394 1398 1402 1406
1404 1403 1401 1400 1398 1395 1393 1391 1388 1385 1382 1379 1375 1371 1368 1364 1361 1359 1356 1354 1352 1351 1350 1349 1350 1351 1352 1354 1356 1359 1361 1364 1368 1371 1374 1377 1380 1383 1387 1391 1395 1399 1402
1401 1399 1398 1396 1395 1393 1391 1389 1386 1383 1381 1378 1375 1371 1368 1365 1362 1359 1356 1354 1352 1350 1349 1349 1349 1349 1350 1352 1354 1356 1359 1361 1364 1367 1370 1373 1376 1380 1383 1387 1391 1395 1399